Showing default

OPS 4988 (GREB 6), 1271

Orbit data source: Space-Track

OPS 4988 (GREB 6), 1271 is an American payload satellite in LEO that was launched on Tue, 09 Mar 1965 UTC via a THOR SLV-2 AGENA D launch vehicle from the Air Force Western Test Range (AFWTR). Payload-class satellites include a variety of spacecraft equipped with specific instruments for various scientific and technological missions. These include communications satellites like Starlink; space stations such as the ISS; scientific satellites like the Hubble; Earth observation satellites from companies like Planet Labs, Umbra, and HawkEye 360; GPS; miniature CubeSats for education and research; and military/defense satellites.

Loading next visibility...
Identifier
1271, 1965-016A
Orbit
LEO
Country
Flag of USUS
Related business
Manufacturer
NRL
Mission
Spacecraft
Bus & Motor
NRL 24", Unknown motor
Mass
48 kg wet, 48 kg dry
Launch date (UTC)
1965-03-09 (61 years ago)
Launch vehicle
THOR SLV-2 AGENA D
Launch site
Air Force Western Test Range (AFWTR)
Object type
Payload
Rocket body
Debris
Shape & HBR
Unknown
Radar Cross Section
Medium (>0.1 m² and <1 m²)

Expand to show TLE details & history
Last TLE update: 8 hours ago

TLE from 8 hours ago
0 OPS 4988 (GREB 6)
1 01271U 65016A   26125.29006560  .00000051  00000-0  74750-4 0  9996
2 01271  70.0798 249.5675 0018800 130.8209 250.1706 13.96653081112829
Epoch: 2026-05-05T06:57Z
TLE epoch observation values (Epoch: 2026-05-05T06:57:41.667Z)
Latitude
19.50393°
Longitude
-70.68725°
Altitude
911.945 km
Speed
7.396 km/s
True Right ascension
17h 07m 36s
True Declination
19° 23' 54"
Sunlit
Object was in full shadow at epoch
Visualization orbit readout
Latitude
Unknown
Longitude
Unknown
Altitude
Unknown
Speed
Unknown
Apparent Right ascension
Unknown
Apparent Declination
Unknown
Sunlit
N/A
Visualization observer readout
Local Sidereal Time
22:45:12
Azimuth
Unknown
Elevation
Unknown
Doppler factor
Unknown
Orbital elements
Apogee altitude
917.132 km
Perigee altitude
889.753 km
Semi-major axis
7,281.579 km
Eccentricity
0.00188
Inclination
70.0798°
RAAN
249.5675°
Arg. of periapsis
130.8209°
True anomaly
249.9681°
Mean anomaly
250.1706°
Eccentric anomaly
250.06934°
Mean motion
3.49305 °/min
Orbital period
103.06 mins
BSTAR
0.00007475
Loading maneuver chart data...
Computing Atmospheric mass density...
Loading historical data...
Loading historical data...
Loading historical data...
Loading historical data...
Loading historical data...
Loading historical data...
Loading historical data...

Documentation

Showing up to 5 results
|